Kimberley Airport

Airport
ICAO code: 
FAKM
IATA Code: 
KIM
Summary
ICAO Region: 
AFI
Territory: 
Location: 
, Northern Cape
Serving: 
Kimberley
Elevation: 
3950 ft
Coordinates: 
Aerial View: 
28° 48' 10.202" S, 24° 45' 54.601" E
Metar
Observation
FAKM 281500Z 07003KT CAVOK 16/01 Q1033
Station
Kimberley, Kim-Apt
Date/Time
2022-06-28 15:00:00
Wind direction
70°
Wind speed
03 kts
Lowest cloud amount
clouds and visibility OK
Temperature
16°C
Dew point
1°C
Humidity
36%
QNH
1033 hPa
Weather condition
n/a

Runways

Designator Length Width Surface Rops
10/28 2439 45 ASP No/No
2/20 3000 46 ASP No/No
Airport map: 
Aerial View: 

Accidents and Serious Incidents at or in the vicinity of FAKM

SKYbrary Partners:

Safety knowledge contributed by: